This demonstration page uses our WeatherBlox Daily Observations layout. Learn more.

Left ArrowRight Arrow

Hourly Observations for May 22, 2018

Temp ( °F °C ) Dew Point ( °F °C ) Humidity (%) Winds ( mph kmh ) Pressure ( in mb ) Visibility ( mi km ) Precip ( " mm )
12:51 am 00:51 Clear 71 21.7 30 -1.1 22 22 NNW 12 19 29.65 1004 10 16 0.00 0.00
1:51 am 01:51 Clear 68 20 30 -1.1 24 24 NNW 5 7 29.66 1004 10 16 0.00 0.00
2:51 am 02:51 Clear 67 19.4 27 -2.8 22 22 ESE 3 6 29.68 1005 10 16 0.00 0.00
3:51 am 03:51 Clear 62 16.7 22 -5.6 21 21 E 6 9 29.72 1006 10 16 0.00 0.00
4:51 am 04:51 Clear 62 16.7 22 -5.6 21 21 E 7 11 29.72 1006 10 16 0.00 0.00
5:51 am 05:51 Sunny 65 18.3 25 -3.9 22 22 E 10 17 29.73 1007 10 16 0.00 0.00
6:51 am 06:51 Sunny 71 21.7 26 -3.3 19 19 ESE 12 19 29.74 1007 10 16 0.00 0.00
7:51 am 07:51 Sunny 76 24.4 30 -1.1 18 18 SE 12 19 29.75 1008 10 16 0.00 0.00
8:51 am 08:51 Sunny 79 26.1 25 -3.9 14 14 SSE 13 20 29.76 1008 10 16 0.00 0.00
9:51 am 09:51 Sunny 83 28.3 17 -8.3 8 8 S 17 28 29.74 1007 10 16 0.00 0.00
10:51 am 10:51 Sunny 85 29.4 12 -11.1 6 6 SSW 13 20 29.72 1006 10 16 0.00 0.00
11:51 am 11:51 Sunny 86 30 10 -12.2 6 6 S 12 19 29.62 1003 10 16 0.00 0.00
12:51 pm 12:51 Sunny 88 31.1 12 -11.1 6 6 SSW 10 17 29.68 1005 10 16 0.00 0.00
1:51 pm 13:51 Sunny 90 32.2 13 -10.6 6 6 SSW 15 24 29.66 1005 10 16 0.00 0.00
2:51 pm 14:51 Sunny 92 33.3 10 -12.2 5 5 SSW 18 30 29.63 1003 10 16 0.00 0.00
3:51 pm 15:51 Sunny 91 32.8 14 -10 6 6 S 16 26 29.63 1003 10 16 0.00 0.00
4:51 pm 16:51 Sunny 90 32.2 15 -9.4 6 6 SSW 9 15 29.62 1003 10 16 0.00 0.00
5:51 pm 17:51 Sunny 90 32.2 16 -8.9 6 6 SW 13 20 29.61 1003 10 16 0.00 0.00
6:51 pm 18:51 Sunny 87 30.6 18 -7.8 8 8 Calm 29.62 1003 10 16 0.00 0.00
7:51 pm 19:51 Clear 82 27.8 21 -6.1 10 10 WNW 9 15 29.65 1004 10 16 0.00 0.00
8:51 pm 20:51 Clear 80 26.7 25 -3.9 13 13 NW 13 20 29.67 1005 10 16 0.00 0.00
9:51 pm 21:51 Clear 78 25.6 26 -3.3 15 15 NW 10 17 29.70 1006 10 16 0.00 0.00
10:51 pm 22:51 Clear 74 23.3 22 -5.6 14 14 WNW 13 20 29.72 1006 10 16 0.00 0.00
11:51 pm 23:51 Clear 73 22.8 22 -5.6 15 15 NW 15 24 29.73 1007 10 16 0.00 0.00

Powered by AerisWeather